User: anonymous   Login
Location: Unspecified
(0.0000°N, 0.0000°E)
Time: 13:16:35
(UTC+00:00)
Language:

ISS - Orbit

View from above orbital plane
View from above orbital plane
View from above satellite
View from above satellite

Ground track
Ground track

The orbit data is extracted from the following two-line orbital elements,

1 25544U 98067A   16240.48369323  .00016717  00000-0  10270-3 0  9031
2 25544  51.6419  62.2683 0003240 261.0262  99.0524 15.54351666 16078
Epoch (UTC): 27 August 2016 11:36:31
Eccentricity: 0.0003240
inclination: 51.6419°
perigee height: 402 km
apogee height: 406 km
right ascension of ascending node: 62.2683°
argument of perigee: 261.0262°
revolutions per day: 15.54351666
mean anomaly at epoch: 99.0524°
orbit number at epoch: 1607

The dashed part of the orbit path shows where the satellite is in the earth's shadow,  

DLR